Time,TemperatureF,DewpointF,PressureIn,WindDirection,WindDirectionDegrees,WindSpeedMPH,WindSpeedGustMPH,Humidity,HourlyPrecipIn,Conditions,Clouds,dailyrainin,SoftwareType,DateUTC
2013-02-15 00:00:00,53.4,30.3,29.18,SSE,158,2.7,6.3,41,0.00,,,0.00,LWC V2.10 B1813,2013-02-15 06:00:00,
2013-02-15 00:05:00,53.4,30.3,29.18,SSE,153,5.4,8.1,41,0.00,,,0.00,LWC V2.10 B1813,2013-02-15 06:05:00,
2013-02-15 00:10:00,53.2,30.2,29.18,SSE,154,4.0,7.2,41,0.00,,,0.00,LWC V2.10 B1813,2013-02-15 06:10:00,
2013-02-15 00:15:00,53.2,30.2,29.18,SSE,155,5.4,8.7,41,0.00,,,0.00,LWC V2.10 B1813,2013-02-15 06:15:00,
2013-02-15 00:20:00,52.9,29.8,29.18,SSE,159,3.6,4.9,41,0.00,,,0.00,LWC V2.10 B1813,2013-02-15 06:20:00,
2013-02-15 00:25:00,53.2,30.2,29.18,South,188,8.7,8.7,41,0.00,,,0.00,LWC V2.10 B1813,2013-02-15 06:25:00,
2013-02-15 00:30:00,53.1,30.0,29.18,ESE,114,4.9,11.0,41,0.00,,,0.00,LWC V2.10 B1813,2013-02-15 06:30:00,
2013-02-15 00:35:00,53.1,30.0,29.18,SSE,156,7.6,8.7,41,0.00,,,0.00,LWC V2.10 B1813,2013-02-15 06:35:00,
2013-02-15 00:40:00,52.9,29.8,29.18,South,190,4.9,6.7,41,0.00,,,0.00,LWC V2.10 B1813,2013-02-15 06:40:00,
2013-02-15 00:45:00,52.5,29.5,29.20,SSE,150,5.8,8.3,41,0.00,,,0.00,LWC V2.10 B1813,2013-02-15 06:45:00,
2013-02-15 00:50:00,52.3,29.3,29.20,South,182,5.4,5.4,41,0.00,,,0.00,LWC V2.10 B1813,2013-02-15 06:50:00,
2013-02-15 00:55:00,52.2,29.2,29.20,South,175,4.9,6.3,41,0.00,,,0.00,LWC V2.10 B1813,2013-02-15 06:55:00,
2013-02-15 01:00:00,51.8,28.9,29.20,SSE,160,0.0,4.9,41,0.00,,,0.00,LWC V2.10 B1813,2013-02-15 07:00:00,
2013-02-15 01:05:00,51.8,28.9,29.20,SE,146,4.9,6.7,41,0.00,,,0.00,LWC V2.10 B1813,2013-02-15 07:05:00,
2013-02-15 01:10:00,51.8,28.9,29.20,SSE,165,3.1,6.3,41,0.00,,,0.00,LWC V2.10 B1813,2013-02-15 07:10:00,
2013-02-15 01:15:00,51.8,28.9,29.20,South,187,2.7,5.4,41,0.00,,,0.00,LWC V2.10 B1813,2013-02-15 07:15:00,
2013-02-15 01:20:00,51.6,29.3,29.20,South,178,3.1,6.7,42,0.00,,,0.00,LWC V2.10 B1813,2013-02-15 07:20:00,
2013-02-15 01:25:00,51.6,29.3,29.20,SSE,158,2.7,5.4,42,0.00,,,0.00,LWC V2.10 B1813,2013-02-15 07:25:00,
2013-02-15 01:30:00,51.3,29.0,29.20,SSE,150,4.0,5.8,42,0.00,,,0.00,LWC V2.10 B1813,2013-02-15 07:30:00,
2013-02-15 01:35:00,51.1,28.8,29.20,ENE,70,3.6,3.6,42,0.00,,,0.00,LWC V2.10 B1813,2013-02-15 07:35:00,
2013-02-15 01:40:00,50.9,28.6,29.20,SE,144,3.6,4.0,42,0.00,,,0.00,LWC V2.10 B1813,2013-02-15 07:40:00,
2013-02-15 01:45:00,50.5,28.3,29.20,SE,140,3.6,3.6,42,0.00,,,0.00,LWC V2.10 B1813,2013-02-15 07:45:00,
2013-02-15 01:50:00,50.0,27.8,29.20,SSE,147,2.7,4.0,42,0.00,,,0.00,LWC V2.10 B1813,2013-02-15 07:50:00,
2013-02-15 01:55:00,49.6,28.1,29.20,SSE,153,3.6,3.6,43,0.00,,,0.00,LWC V2.10 B1813,2013-02-15 07:55:00,
2013-02-15 02:00:00,49.6,28.1,29.20,SSE,147,4.9,4.9,43,0.00,,,0.00,LWC V2.10 B1813,2013-02-15 08:00:00,
2013-02-15 02:05:00,50.0,28.4,29.20,SE,138,3.1,5.4,43,0.00,,,0.00,LWC V2.10 B1813,2013-02-15 08:05:00,
2013-02-15 02:10:00,49.8,28.2,29.20,SSE,153,2.7,3.1,43,0.00,,,0.00,LWC V2.10 B1813,2013-02-15 08:10:00,
2013-02-15 02:15:00,50.2,28.6,29.20,SSE,148,2.7,3.6,43,0.00,,,0.00,LWC V2.10 B1813,2013-02-15 08:15:00,
2013-02-15 02:20:00,49.8,28.2,29.20,ESE,106,3.1,4.0,43,0.00,,,0.00,LWC V2.10 B1813,2013-02-15 08:20:00,
2013-02-15 02:25:00,49.3,27.7,29.20,SE,129,2.7,4.0,43,0.00,,,0.00,LWC V2.10 B1813,2013-02-15 08:25:00,
2013-02-15 02:30:00,48.9,28.0,29.20,SE,129,2.7,4.0,44,0.00,,,0.00,LWC V2.10 B1813,2013-02-15 08:30:00,
2013-02-15 02:35:00,48.7,27.8,29.20,ESE,115,2.7,5.4,44,0.00,,,0.00,LWC V2.10 B1813,2013-02-15 08:35:00,
2013-02-15 02:40:00,48.7,27.8,29.20,SSE,165,2.7,3.6,44,0.00,,,0.00,LWC V2.10 B1813,2013-02-15 08:40:00,
2013-02-15 02:45:00,48.7,27.8,29.20,SSE,149,3.1,4.0,44,0.00,,,0.00,LWC V2.10 B1813,2013-02-15 08:45:00,
2013-02-15 02:50:00,48.7,27.8,29.20,SSE,148,3.1,3.6,44,0.00,,,0.00,LWC V2.10 B1813,2013-02-15 08:50:00,
2013-02-15 02:55:00,48.6,27.6,29.20,SSE,166,2.7,2.7,44,0.00,,,0.00,LWC V2.10 B1813,2013-02-15 08:55:00,
2013-02-15 03:00:00,48.6,27.6,29.20,SSE,164,0.0,0.0,44,0.00,,,0.00,LWC V2.10 B1813,2013-02-15 09:00:00,
2013-02-15 03:05:00,48.6,27.6,29.20,SSE,152,0.0,3.1,44,0.00,,,0.00,LWC V2.10 B1813,2013-02-15 09:05:00,
2013-02-15 03:10:00,48.6,27.6,29.20,SE,141,0.0,2.7,44,0.00,,,0.00,LWC V2.10 B1813,2013-02-15 09:10:00,
2013-02-15 03:15:00,48.6,27.6,29.20,SE,138,2.7,2.7,44,0.00,,,0.00,LWC V2.10 B1813,2013-02-15 09:15:00,
2013-02-15 03:20:00,48.4,27.5,29.20,SSE,159,0.0,0.0,44,0.00,,,0.00,LWC V2.10 B1813,2013-02-15 09:20:00,
2013-02-15 03:25:00,48.6,27.6,29.20,SSE,157,0.0,0.0,44,0.00,,,0.00,LWC V2.10 B1813,2013-02-15 09:25:00,
2013-02-15 03:30:00,48.4,27.5,29.20,SE,135,2.7,2.7,44,0.00,,,0.00,LWC V2.10 B1813,2013-02-15 09:30:00,
2013-02-15 03:35:00,48.4,27.5,29.20,SE,143,0.0,2.7,44,0.00,,,0.00,LWC V2.10 B1813,2013-02-15 09:35:00,
2013-02-15 03:40:00,48.6,28.2,29.20,SSE,157,0.0,0.0,45,0.00,,,0.00,LWC V2.10 B1813,2013-02-15 09:40:00,
2013-02-15 03:45:00,48.4,28.0,29.20,SSE,157,0.0,0.0,45,0.00,,,0.00,LWC V2.10 B1813,2013-02-15 09:45:00,
2013-02-15 03:50:00,48.2,27.9,29.20,SSE,157,0.0,0.0,45,0.00,,,0.00,LWC V2.10 B1813,2013-02-15 09:50:00,
2013-02-15 03:55:00,48.2,27.9,29.20,SSE,156,2.2,2.2,45,0.00,,,0.00,LWC V2.10 B1813,2013-02-15 09:55:00,
2013-02-15 04:00:00,48.4,28.0,29.20,SSE,152,2.2,2.7,45,0.00,,,0.00,LWC V2.10 B1813,2013-02-15 10:00:00,
2013-02-15 04:05:00,48.4,28.0,29.20,SSE,149,0.0,0.0,45,0.00,,,0.00,LWC V2.10 B1813,2013-02-15 10:05:00,
2013-02-15 04:10:00,48.4,28.0,29.20,SSE,153,0.0,0.0,45,0.00,,,0.00,LWC V2.10 B1813,2013-02-15 10:10:00,
2013-02-15 04:15:00,48.4,28.0,29.20,SSE,155,0.0,0.0,45,0.00,,,0.00,LWC V2.10 B1813,2013-02-15 10:15:00,
2013-02-15 04:20:00,48.4,28.0,29.20,SSE,155,0.0,0.0,45,0.00,,,0.00,LWC V2.10 B1813,2013-02-15 10:20:00,
2013-02-15 04:25:00,48.6,28.2,29.20,SSW,209,2.7,3.1,45,0.00,,,0.00,LWC V2.10 B1813,2013-02-15 10:25:00,
2013-02-15 04:30:00,48.6,28.7,29.20,South,179,2.7,2.7,46,0.00,,,0.00,LWC V2.10 B1813,2013-02-15 10:30:00,
2013-02-15 04:35:00,48.4,28.6,29.20,South,189,2.2,2.7,46,0.00,,,0.00,LWC V2.10 B1813,2013-02-15 10:35:00,
2013-02-15 04:40:00,48.2,28.9,29.20,SSW,195,2.2,2.7,47,0.00,,,0.00,LWC V2.10 B1813,2013-02-15 10:40:00,
2013-02-15 04:45:00,48.2,28.9,29.20,South,181,3.1,3.1,47,0.00,,,0.00,LWC V2.10 B1813,2013-02-15 10:45:00,
2013-02-15 04:50:00,48.0,29.3,29.20,South,177,3.1,3.1,48,0.00,,,0.00,LWC V2.10 B1813,2013-02-15 10:50:00,
2013-02-15 04:55:00,48.0,29.3,29.20,South,179,2.7,2.7,48,0.00,,,0.00,LWC V2.10 B1813,2013-02-15 10:55:00,
2013-02-15 05:00:00,48.0,29.8,29.20,South,181,0.0,0.0,49,0.00,,,0.00,LWC V2.10 B1813,2013-02-15 11:00:00,
2013-02-15 05:05:00,48.0,29.8,29.20,South,181,0.0,0.0,49,0.00,,,0.00,LWC V2.10 B1813,2013-02-15 11:05:00,
2013-02-15 05:10:00,48.0,30.3,29.20,South,184,0.0,0.0,50,0.00,,,0.00,LWC V2.10 B1813,2013-02-15 11:10:00,
2013-02-15 05:15:00,48.2,30.4,29.24,South,189,0.0,2.2,50,0.00,,,0.00,LWC V2.10 B1813,2013-02-15 11:15:00,
2013-02-15 05:20:00,48.0,30.3,29.24,South,189,0.0,0.0,50,0.00,,,0.00,LWC V2.10 B1813,2013-02-15 11:20:00,
2013-02-15 05:25:00,48.0,30.3,29.24,SSW,192,0.0,0.0,50,0.00,,,0.00,LWC V2.10 B1813,2013-02-15 11:25:00,
2013-02-15 05:30:00,46.4,28.8,29.26,NW,318,4.0,7.6,50,0.00,,,0.00,LWC V2.10 B1813,2013-02-15 11:30:00,
2013-02-15 05:35:00,42.8,25.9,29.26,North,353,2.2,4.0,51,0.00,,,0.00,LWC V2.10 B1813,2013-02-15 11:35:00,
2013-02-15 05:40:00,42.4,26.5,29.26,NNW,328,2.2,3.6,53,0.00,,,0.00,LWC V2.10 B1813,2013-02-15 11:40:00,
2013-02-15 05:45:00,43.2,27.7,29.26,NNW,348,2.7,3.6,54,0.00,,,0.00,LWC V2.10 B1813,2013-02-15 11:45:00,
2013-02-15 05:50:00,43.0,27.5,29.26,NW,319,3.1,4.0,54,0.00,,,0.00,LWC V2.10 B1813,2013-02-15 11:50:00,
2013-02-15 05:55:00,43.5,28.0,29.26,North,357,5.4,5.4,54,0.00,,,0.00,LWC V2.10 B1813,2013-02-15 11:55:00,
2013-02-15 06:00:00,44.1,28.5,29.26,NNW,345,4.0,4.0,54,0.00,,,0.00,LWC V2.10 B1813,2013-02-15 12:00:00,
2013-02-15 06:05:00,45.0,28.9,29.26,North,353,3.1,3.6,53,0.00,,,0.00,LWC V2.10 B1813,2013-02-15 12:05:00,
2013-02-15 06:10:00,45.3,28.7,29.26,NW,325,2.7,3.6,52,0.00,,,0.00,LWC V2.10 B1813,2013-02-15 12:10:00,
2013-02-15 06:15:00,45.5,28.9,29.26,North,7,0.0,4.0,52,0.00,,,0.00,LWC V2.10 B1813,2013-02-15 12:15:00,
2013-02-15 06:20:00,45.7,29.1,29.26,NW,314,3.6,3.6,52,0.00,,,0.00,LWC V2.10 B1813,2013-02-15 12:20:00,
2013-02-15 06:25:00,46.2,30.0,29.26,NNW,334,3.6,4.0,53,0.00,,,0.00,LWC V2.10 B1813,2013-02-15 12:25:00,
2013-02-15 06:30:00,46.4,29.7,29.26,NW,319,2.7,3.1,52,0.00,,,0.00,LWC V2.10 B1813,2013-02-15 12:30:00,
2013-02-15 06:35:00,46.6,29.9,29.26,NNW,329,0.0,3.1,52,0.00,,,0.00,LWC V2.10 B1813,2013-02-15 12:35:00,
2013-02-15 06:40:00,46.4,29.7,29.26,NNW,342,3.1,4.9,52,0.00,,,0.00,LWC V2.10 B1813,2013-02-15 12:40:00,
2013-02-15 06:45:00,46.0,29.9,29.26,NNW,328,0.0,0.0,53,0.00,,,0.00,LWC V2.10 B1813,2013-02-15 12:45:00,
2013-02-15 06:50:00,45.7,29.5,29.26,NNW,346,3.6,4.9,53,0.00,,,0.00,LWC V2.10 B1813,2013-02-15 12:50:00,
2013-02-15 06:55:00,45.9,29.7,29.26,North,0,0.0,2.7,53,0.00,,,0.00,LWC V2.10 B1813,2013-02-15 12:55:00,
2013-02-15 07:00:00,45.9,29.7,29.29,NW,326,2.7,2.7,53,0.00,,,0.00,LWC V2.10 B1813,2013-02-15 13:00:00,
2013-02-15 07:05:00,46.0,30.3,29.29,NNW,340,3.1,3.1,54,0.00,,,0.00,LWC V2.10 B1813,2013-02-15 13:05:00,
2013-02-15 07:10:00,46.0,30.3,29.29,NW,326,2.2,2.7,54,0.00,,,0.00,LWC V2.10 B1813,2013-02-15 13:10:00,
2013-02-15 07:15:00,45.9,30.2,29.29,North,353,0.0,0.0,54,0.00,,,0.00,LWC V2.10 B1813,2013-02-15 13:15:00,
2013-02-15 07:20:00,45.0,28.9,29.29,North,0,2.7,3.1,53,0.00,,,0.00,LWC V2.10 B1813,2013-02-15 13:20:00,
2013-02-15 07:25:00,44.4,28.8,29.29,NNE,15,2.7,3.1,54,0.00,,,0.00,LWC V2.10 B1813,2013-02-15 13:25:00,
2013-02-15 07:30:00,44.6,29.0,29.29,North,0,0.0,0.0,54,0.00,,,0.00,LWC V2.10 B1813,2013-02-15 13:30:00,
2013-02-15 07:35:00,44.1,28.5,29.29,NW,307,2.2,2.7,54,0.00,,,0.00,LWC V2.10 B1813,2013-02-15 13:35:00,
2013-02-15 07:40:00,42.8,27.3,29.29,NW,315,2.2,2.7,54,0.00,,,0.00,LWC V2.10 B1813,2013-02-15 13:40:00,
2013-02-15 07:45:00,42.8,27.8,29.32,NW,312,0.0,0.0,55,0.00,,,0.00,LWC V2.10 B1813,2013-02-15 13:45:00,
2013-02-15 07:50:00,43.0,27.9,29.32,NW,311,0.0,0.0,55,0.00,,,0.00,LWC V2.10 B1813,2013-02-15 13:50:00,
2013-02-15 07:55:00,43.0,28.4,29.32,NW,311,0.0,0.0,56,0.00,,,0.00,LWC V2.10 B1813,2013-02-15 13:55:00,
2013-02-15 08:00:00,43.3,28.7,29.32,NW,311,0.0,0.0,56,0.00,,,0.00,LWC V2.10 B1813,2013-02-15 14:00:00,
2013-02-15 08:05:00,43.7,29.5,29.32,NW,311,0.0,0.0,57,0.00,,,0.00,LWC V2.10 B1813,2013-02-15 14:05:00,
2013-02-15 08:10:00,44.1,29.8,29.32,NW,311,0.0,0.0,57,0.00,,,0.00,LWC V2.10 B1813,2013-02-15 14:10:00,
2013-02-15 08:15:00,44.6,30.3,29.32,West,272,0.0,2.2,57,0.00,,,0.00,LWC V2.10 B1813,2013-02-15 14:15:00,
2013-02-15 08:20:00,45.0,30.2,29.32,WSW,246,2.7,3.1,56,0.00,,,0.00,LWC V2.10 B1813,2013-02-15 14:20:00,
2013-02-15 08:25:00,45.3,30.6,29.32,WSW,246,0.0,0.0,56,0.00,,,0.00,LWC V2.10 B1813,2013-02-15 14:25:00,
2013-02-15 08:30:00,45.7,30.9,29.35,West,265,5.8,5.8,56,0.00,,,0.00,LWC V2.10 B1813,2013-02-15 14:30:00,
2013-02-15 08:35:00,44.4,30.6,29.35,WSW,254,2.2,4.0,58,0.00,,,0.00,LWC V2.10 B1813,2013-02-15 14:35:00,
2013-02-15 08:40:00,44.2,31.7,29.35,SSW,213,2.7,3.6,61,0.00,,,0.00,LWC V2.10 B1813,2013-02-15 14:40:00,
2013-02-15 08:45:00,44.2,32.1,29.35,SSW,206,0.0,0.0,62,0.00,,,0.00,LWC V2.10 B1813,2013-02-15 14:45:00,
2013-02-15 08:50:00,45.1,32.5,29.35,SW,234,0.0,0.0,61,0.00,,,0.00,LWC V2.10 B1813,2013-02-15 14:50:00,
2013-02-15 08:55:00,45.9,32.8,29.35,West,271,0.0,2.2,60,0.00,,,0.00,LWC V2.10 B1813,2013-02-15 14:55:00,
2013-02-15 09:00:00,46.2,32.7,29.35,WNW,291,0.0,3.6,59,0.00,,,0.00,LWC V2.10 B1813,2013-02-15 15:00:00,
2013-02-15 09:05:00,46.9,32.9,29.35,North,357,2.7,3.6,58,0.00,,,0.00,LWC V2.10 B1813,2013-02-15 15:05:00,
2013-02-15 09:10:00,47.7,32.7,29.35,WNW,294,3.1,4.0,56,0.00,,,0.00,LWC V2.10 B1813,2013-02-15 15:10:00,
2013-02-15 09:15:00,48.4,33.0,29.35,North,357,3.6,4.0,55,0.00,,,0.00,LWC V2.10 B1813,2013-02-15 15:15:00,
2013-02-15 09:20:00,48.7,32.4,29.35,North,353,4.0,5.8,53,0.00,,,0.00,LWC V2.10 B1813,2013-02-15 15:20:00,
2013-02-15 09:25:00,49.1,32.7,29.35,North,353,5.4,5.4,53,0.00,,,0.00,LWC V2.10 B1813,2013-02-15 15:25:00,
2013-02-15 09:30:00,49.8,32.9,29.35,NNW,337,3.6,3.6,52,0.00,,,0.00,LWC V2.10 B1813,2013-02-15 15:30:00,
2013-02-15 09:35:00,50.4,32.9,29.35,NNW,335,3.6,4.0,51,0.00,,,0.00,LWC V2.10 B1813,2013-02-15 15:35:00,
2013-02-15 09:40:00,51.1,33.6,29.35,North,357,4.0,4.9,51,0.00,,,0.00,LWC V2.10 B1813,2013-02-15 15:40:00,
2013-02-15 09:45:00,52.2,34.1,29.35,WNW,295,0.0,2.2,50,0.00,,,0.00,LWC V2.10 B1813,2013-02-15 15:45:00,
2013-02-15 09:50:00,53.1,34.9,29.35,North,353,2.2,3.1,50,0.00,,,0.00,LWC V2.10 B1813,2013-02-15 15:50:00,
2013-02-15 09:55:00,53.6,34.9,29.35,NNW,341,5.4,5.8,49,0.00,,,0.00,LWC V2.10 B1813,2013-02-15 15:55:00,
2013-02-15 10:00:00,53.8,34.6,29.35,North,353,4.0,5.4,48,0.00,,,0.00,LWC V2.10 B1813,2013-02-15 16:00:00,
2013-02-15 10:05:00,54.0,34.7,29.35,NNW,345,2.7,4.9,48,0.00,,,0.00,LWC V2.10 B1813,2013-02-15 16:05:00,
2013-02-15 10:10:00,54.3,35.0,29.35,NE,54,0.0,4.0,48,0.00,,,0.00,LWC V2.10 B1813,2013-02-15 16:10:00,
2013-02-15 10:15:00,54.7,34.9,29.35,NNW,348,5.4,5.8,47,0.00,,,0.00,LWC V2.10 B1813,2013-02-15 16:15:00,
2013-02-15 10:20:00,54.9,35.0,29.35,NNE,12,7.6,8.3,47,0.00,,,0.00,LWC V2.10 B1813,2013-02-15 16:20:00,
2013-02-15 10:25:00,54.9,35.0,29.35,NNE,33,3.1,6.3,47,0.00,,,0.00,LWC V2.10 B1813,2013-02-15 16:25:00,
2013-02-15 10:30:00,55.6,35.7,29.38,North,357,4.9,5.8,47,0.00,,,0.00,LWC V2.10 B1813,2013-02-15 16:30:00,
2013-02-15 10:35:00,55.8,35.8,29.38,NNE,29,7.6,11.0,47,0.00,,,0.00,LWC V2.10 B1813,2013-02-15 16:35:00,
2013-02-15 10:40:00,55.4,35.5,29.38,North,357,3.6,5.8,47,0.00,,,0.00,LWC V2.10 B1813,2013-02-15 16:40:00,
2013-02-15 10:45:00,55.6,35.7,29.35,NNW,339,8.1,10.5,47,0.00,,,0.00,LWC V2.10 B1813,2013-02-15 16:45:00,
2013-02-15 10:50:00,55.9,35.5,29.35,NNE,17,8.7,10.1,46,0.00,,,0.00,LWC V2.10 B1813,2013-02-15 16:50:00,
2013-02-15 10:55:00,56.1,35.6,29.35,ENE,71,4.0,8.1,46,0.00,,,0.00,LWC V2.10 B1813,2013-02-15 16:55:00,
2013-02-15 11:00:00,56.1,35.6,29.38,SE,125,4.0,5.8,46,0.00,,,0.00,LWC V2.10 B1813,2013-02-15 17:00:00,
2013-02-15 11:05:00,56.7,36.1,29.38,NNE,13,3.1,8.1,46,0.00,,,0.00,LWC V2.10 B1813,2013-02-15 17:05:00,
2013-02-15 11:10:00,56.7,36.1,29.38,ENE,60,2.2,8.7,46,0.00,,,0.00,LWC V2.10 B1813,2013-02-15 17:10:00,
2013-02-15 11:15:00,56.7,36.1,29.38,North,7,8.7,10.1,46,0.00,,,0.00,LWC V2.10 B1813,2013-02-15 17:15:00,
2013-02-15 11:20:00,56.7,36.1,29.38,NNE,12,5.4,8.7,46,0.00,,,0.00,LWC V2.10 B1813,2013-02-15 17:20:00,
2013-02-15 11:25:00,57.0,36.4,29.38,North,3,3.6,8.3,46,0.00,,,0.00,LWC V2.10 B1813,2013-02-15 17:25:00,
2013-02-15 11:30:00,57.7,37.1,29.38,ENE,60,2.2,8.1,46,0.00,,,0.00,LWC V2.10 B1813,2013-02-15 17:30:00,
2013-02-15 11:35:00,58.5,37.8,29.38,NE,49,8.1,8.1,46,0.00,,,0.00,LWC V2.10 B1813,2013-02-15 17:35:00,
2013-02-15 11:40:00,58.3,37.0,29.38,North,357,3.1,8.1,45,0.00,,,0.00,LWC V2.10 B1813,2013-02-15 17:40:00,
2013-02-15 11:45:00,58.6,37.4,29.35,NNE,31,3.1,6.3,45,0.00,,,0.00,LWC V2.10 B1813,2013-02-15 17:45:00,
2013-02-15 11:50:00,58.5,36.6,29.35,NE,35,2.2,8.3,44,0.00,,,0.00,LWC V2.10 B1813,2013-02-15 17:50:00,
2013-02-15 11:55:00,58.8,37.0,29.35,NNE,20,7.6,9.6,44,0.00,,,0.00,LWC V2.10 B1813,2013-02-15 17:55:00,
2013-02-15 12:00:00,58.3,35.9,29.35,North,7,13.2,13.2,43,0.00,,,0.00,LWC V2.10 B1813,2013-02-15 18:00:00,
2013-02-15 12:05:00,58.8,36.4,29.35,North,357,5.8,8.1,43,0.00,,,0.00,LWC V2.10 B1813,2013-02-15 18:05:00,
2013-02-15 12:10:00,59.5,37.0,29.35,NE,38,8.3,10.1,43,0.00,,,0.00,LWC V2.10 B1813,2013-02-15 18:10:00,
2013-02-15 12:15:00,59.4,36.3,29.35,NE,36,5.8,8.7,42,0.00,,,0.00,LWC V2.10 B1813,2013-02-15 18:15:00,
2013-02-15 12:20:00,60.4,37.8,29.35,NNE,12,3.1,7.6,43,0.00,,,0.00,LWC V2.10 B1813,2013-02-15 18:20:00,
2013-02-15 12:25:00,60.3,37.1,29.35,NE,46,4.0,6.3,42,0.00,,,0.00,LWC V2.10 B1813,2013-02-15 18:25:00,
2013-02-15 12:30:00,60.4,37.2,29.35,NNE,24,4.0,6.3,42,0.00,,,0.00,LWC V2.10 B1813,2013-02-15 18:30:00,
2013-02-15 12:35:00,60.3,37.1,29.35,NE,37,4.0,6.3,42,0.00,,,0.00,LWC V2.10 B1813,2013-02-15 18:35:00,
2013-02-15 12:40:00,59.7,36.6,29.35,NNE,29,3.6,7.6,42,0.00,,,0.00,LWC V2.10 B1813,2013-02-15 18:40:00,
2013-02-15 12:45:00,59.7,36.6,29.35,ENE,67,5.4,6.3,42,0.00,,,0.00,LWC V2.10 B1813,2013-02-15 18:45:00,
2013-02-15 12:50:00,59.2,35.5,29.35,NNE,18,5.8,13.2,41,0.00,,,0.00,LWC V2.10 B1813,2013-02-15 18:50:00,
2013-02-15 12:55:00,58.5,35.5,29.35,ENE,64,4.9,6.3,42,0.00,,,0.00,LWC V2.10 B1813,2013-02-15 18:55:00,
2013-02-15 13:00:00,58.6,35.6,29.35,North,7,7.6,8.1,42,0.00,,,0.00,LWC V2.10 B1813,2013-02-15 19:00:00,
2013-02-15 13:02:00,58.8,35.8,29.35,North,357,5.8,10.5,42,0.00,,,0.00,LWC V2.10 B1813,2013-02-15 19:02:00,
2013-02-15 13:07:00,58.8,35.8,29.35,NNE,15,6.3,11.0,42,0.00,,,0.00,LWC V2.10 B1813,2013-02-15 19:07:00,
2013-02-15 13:12:00,59.0,35.9,29.35,NW,315,3.1,4.0,42,0.00,,,0.00,LWC V2.10 B1813,2013-02-15 19:12:00,
2013-02-15 13:17:00,58.8,35.8,29.35,ENE,59,5.4,8.3,42,0.00,,,0.00,LWC V2.10 B1813,2013-02-15 19:17:00,
2013-02-15 13:22:00,59.2,36.1,29.35,ENE,57,2.7,8.1,42,0.00,,,0.00,LWC V2.10 B1813,2013-02-15 19:22:00,
2013-02-15 13:27:00,59.7,36.6,29.35,NE,52,9.2,10.5,42,0.00,,,0.00,LWC V2.10 B1813,2013-02-15 19:27:00,
2013-02-15 13:32:00,59.2,36.1,29.32,NNE,30,10.5,10.5,42,0.00,,,0.00,LWC V2.10 B1813,2013-02-15 19:32:00,
2013-02-15 13:37:00,59.2,36.1,29.32,NNE,19,7.6,7.6,42,0.00,,,0.00,LWC V2.10 B1813,2013-02-15 19:37:00,
2013-02-15 13:42:00,59.9,36.8,29.32,North,0,8.1,8.1,42,0.00,,,0.00,LWC V2.10 B1813,2013-02-15 19:42:00,
2013-02-15 13:47:00,60.4,37.2,29.32,North,353,5.4,12.3,42,0.00,,,0.00,LWC V2.10 B1813,2013-02-15 19:47:00,
2013-02-15 13:52:00,60.3,36.5,29.32,NNE,26,8.3,12.8,41,0.00,,,0.00,LWC V2.10 B1813,2013-02-15 19:52:00,
2013-02-15 13:57:00,59.4,35.7,29.32,NE,52,5.8,8.1,41,0.00,,,0.00,LWC V2.10 B1813,2013-02-15 19:57:00,
2013-02-15 14:02:00,59.5,35.8,29.32,NNW,331,10.1,10.1,41,0.00,,,0.00,LWC V2.10 B1813,2013-02-15 20:02:00,
2013-02-15 14:07:00,59.9,36.1,29.32,NNW,346,5.4,10.5,41,0.00,,,0.00,LWC V2.10 B1813,2013-02-15 20:07:00,
2013-02-15 14:12:00,59.0,35.3,29.32,NW,325,8.3,10.5,41,0.00,,,0.00,LWC V2.10 B1813,2013-02-15 20:12:00,
2013-02-15 14:17:00,58.8,35.8,29.32,North,357,7.6,12.3,42,0.00,,,0.00,LWC V2.10 B1813,2013-02-15 20:17:00,
2013-02-15 14:22:00,58.8,35.8,29.32,North,0,5.8,10.1,42,0.00,,,0.00,LWC V2.10 B1813,2013-02-15 20:22:00,
2013-02-15 14:27:00,58.3,35.3,29.32,NNE,23,3.6,11.9,42,0.00,,,0.00,LWC V2.10 B1813,2013-02-15 20:27:00,
2013-02-15 14:32:00,58.1,35.1,29.32,NNE,19,10.1,10.1,42,0.00,,,0.00,LWC V2.10 B1813,2013-02-15 20:32:00,
2013-02-15 14:38:00,58.8,35.8,29.32,NNE,13,6.3,13.2,42,0.00,,,0.00,LWC V2.10 B1813,2013-02-15 20:38:00,
2013-02-15 14:43:00,59.7,36.6,29.32,NNE,31,10.5,10.5,42,0.00,,,0.00,LWC V2.10 B1813,2013-02-15 20:43:00,
2013-02-15 14:48:00,58.8,35.8,29.32,NNE,13,8.1,8.1,42,0.00,,,0.00,LWC V2.10 B1813,2013-02-15 20:48:00,
2013-02-15 14:53:00,57.7,34.8,29.32,NE,36,7.6,8.1,42,0.00,,,0.00,LWC V2.10 B1813,2013-02-15 20:53:00,
2013-02-15 14:58:00,57.7,35.4,29.32,NNE,32,4.9,7.6,43,0.00,,,0.00,LWC V2.10 B1813,2013-02-15 20:58:00,
2013-02-15 15:03:00,59.2,36.1,29.32,NE,42,5.8,8.1,42,0.00,,,0.00,LWC V2.10 B1813,2013-02-15 21:03:00,
2013-02-15 15:08:00,58.1,35.1,29.32,North,4,11.0,11.0,42,0.00,,,0.00,LWC V2.10 B1813,2013-02-15 21:08:00,
2013-02-15 15:13:00,57.4,35.1,29.32,NNE,20,14.1,14.1,43,0.00,,,0.00,LWC V2.10 B1813,2013-02-15 21:13:00,
2013-02-15 15:18:00,57.2,34.9,29.32,NNW,328,7.6,7.6,43,0.00,,,0.00,LWC V2.10 B1813,2013-02-15 21:18:00,
2013-02-15 15:23:00,57.2,34.9,29.32,North,357,9.6,11.0,43,0.00,,,0.00,LWC V2.10 B1813,2013-02-15 21:23:00,
2013-02-15 15:28:00,56.5,34.3,29.32,North,0,8.3,12.8,43,0.00,,,0.00,LWC V2.10 B1813,2013-02-15 21:28:00,
2013-02-15 15:33:00,56.3,34.7,29.32,North,357,7.2,7.2,44,0.00,,,0.00,LWC V2.10 B1813,2013-02-15 21:33:00,
2013-02-15 15:38:00,56.3,34.7,29.32,NNW,327,5.4,13.6,44,0.00,,,0.00,LWC V2.10 B1813,2013-02-15 21:38:00,
2013-02-15 15:43:00,56.1,34.5,29.32,North,357,5.8,10.1,44,0.00,,,0.00,LWC V2.10 B1813,2013-02-15 21:43:00,
2013-02-15 15:48:00,55.9,34.3,29.32,North,357,10.1,11.0,44,0.00,,,0.00,LWC V2.10 B1813,2013-02-15 21:48:00,
2013-02-15 15:53:00,55.6,34.0,29.32,North,357,8.1,12.3,44,0.00,,,0.00,LWC V2.10 B1813,2013-02-15 21:53:00,
2013-02-15 15:58:00,55.4,33.9,29.32,NNE,29,8.3,8.3,44,0.00,,,0.00,LWC V2.10 B1813,2013-02-15 21:58:00,
2013-02-15 16:03:00,54.9,33.9,29.32,NNE,21,3.6,12.3,45,0.00,,,0.00,LWC V2.10 B1813,2013-02-15 22:03:00,
2013-02-15 16:08:00,54.5,33.6,29.32,North,357,7.2,11.0,45,0.00,,,0.00,LWC V2.10 B1813,2013-02-15 22:08:00,
2013-02-15 16:13:00,54.5,33.6,29.32,North,11,11.9,13.2,45,0.00,,,0.00,LWC V2.10 B1813,2013-02-15 22:13:00,
2013-02-15 16:18:00,54.1,33.3,29.32,North,357,5.4,8.1,45,0.00,,,0.00,LWC V2.10 B1813,2013-02-15 22:18:00,
2013-02-15 16:23:00,54.1,33.3,29.32,NW,322,10.5,10.5,45,0.00,,,0.00,LWC V2.10 B1813,2013-02-15 22:23:00,
2013-02-15 16:28:00,54.5,33.6,29.32,NE,35,7.6,7.6,45,0.00,,,0.00,LWC V2.10 B1813,2013-02-15 22:28:00,
2013-02-15 16:33:00,54.7,33.8,29.35,NNW,344,5.8,11.0,45,0.00,,,0.00,LWC V2.10 B1813,2013-02-15 22:33:00,
2013-02-15 16:38:00,54.5,33.6,29.35,North,11,8.7,11.9,45,0.00,,,0.00,LWC V2.10 B1813,2013-02-15 22:38:00,
2013-02-15 16:43:00,54.3,33.4,29.35,NNE,13,6.3,8.1,45,0.00,,,0.00,LWC V2.10 B1813,2013-02-15 22:43:00,
2013-02-15 16:48:00,54.1,33.3,29.35,North,7,8.7,12.3,45,0.00,,,0.00,LWC V2.10 B1813,2013-02-15 22:48:00,
2013-02-15 16:53:00,54.0,33.1,29.35,NNW,348,10.5,12.8,45,0.00,,,0.00,LWC V2.10 B1813,2013-02-15 22:53:00,
2013-02-15 16:58:00,54.0,33.1,29.35,NNW,329,10.1,10.1,45,0.00,,,0.00,LWC V2.10 B1813,2013-02-15 22:58:00,
2013-02-15 17:03:00,53.8,32.9,29.35,NNE,13,4.9,6.7,45,0.00,,,0.00,LWC V2.10 B1813,2013-02-15 23:03:00,
2013-02-15 17:08:00,53.8,32.9,29.35,NNW,338,10.1,10.5,45,0.00,,,0.00,LWC V2.10 B1813,2013-02-15 23:08:00,
2013-02-15 17:13:00,53.6,32.8,29.35,North,357,5.8,9.2,45,0.00,,,0.00,LWC V2.10 B1813,2013-02-15 23:13:00,
2013-02-15 17:18:00,53.1,32.8,29.35,NNW,343,6.3,10.1,46,0.00,,,0.00,LWC V2.10 B1813,2013-02-15 23:18:00,
2013-02-15 17:23:00,52.9,32.7,29.35,NNE,33,6.3,9.6,46,0.00,,,0.00,LWC V2.10 B1813,2013-02-15 23:23:00,
2013-02-15 17:28:00,52.5,32.3,29.35,NNW,340,2.7,7.6,46,0.00,,,0.00,LWC V2.10 B1813,2013-02-15 23:28:00,
2013-02-15 17:33:00,52.3,32.2,29.35,North,9,3.6,8.1,46,0.00,,,0.00,LWC V2.10 B1813,2013-02-15 23:33:00,
2013-02-15 17:38:00,52.2,32.0,29.35,NNE,12,3.6,10.1,46,0.00,,,0.00,LWC V2.10 B1813,2013-02-15 23:38:00,
2013-02-15 17:43:00,52.0,31.9,29.35,North,0,6.3,8.3,46,0.00,,,0.00,LWC V2.10 B1813,2013-02-15 23:43:00,
2013-02-15 17:48:00,51.8,31.7,29.35,NNE,14,4.0,4.5,46,0.00,,,0.00,LWC V2.10 B1813,2013-02-15 23:48:00,
2013-02-15 17:53:00,51.6,31.5,29.35,North,357,10.5,10.5,46,0.00,,,0.00,LWC V2.10 B1813,2013-02-15 23:53:00,
2013-02-15 17:58:00,51.4,31.4,29.35,NE,49,7.6,17.0,46,0.00,,,0.00,LWC V2.10 B1813,2013-02-15 23:58:00,
2013-02-15 18:03:00,51.3,31.2,29.38,North,0,4.0,5.4,46,0.00,,,0.00,LWC V2.10 B1813,2013-02-16 00:03:00,
2013-02-15 18:08:00,50.9,30.9,29.38,North,353,3.6,6.3,46,0.00,,,0.00,LWC V2.10 B1813,2013-02-16 00:08:00,
2013-02-15 18:13:00,50.9,30.9,29.38,North,353,3.1,10.5,46,0.00,,,0.00,LWC V2.10 B1813,2013-02-16 00:13:00,
2013-02-15 18:18:00,50.7,30.7,29.38,NNE,16,5.4,10.1,46,0.00,,,0.00,LWC V2.10 B1813,2013-02-16 00:18:00,
2013-02-15 18:23:00,50.5,31.1,29.38,WNW,300,8.7,12.3,47,0.00,,,0.00,LWC V2.10 B1813,2013-02-16 00:23:00,
2013-02-15 18:28:00,50.4,30.4,29.38,North,9,4.0,5.4,46,0.00,,,0.00,LWC V2.10 B1813,2013-02-16 00:28:00,
2013-02-15 18:33:00,50.4,30.4,29.38,North,0,5.4,8.1,46,0.00,,,0.00,LWC V2.10 B1813,2013-02-16 00:33:00,
2013-02-15 18:38:00,50.4,30.4,29.38,North,357,6.3,8.1,46,0.00,,,0.00,LWC V2.10 B1813,2013-02-16 00:38:00,
2013-02-15 18:43:00,50.4,30.4,29.38,North,357,8.7,8.7,46,0.00,,,0.00,LWC V2.10 B1813,2013-02-16 00:43:00,
2013-02-15 18:48:00,50.2,30.2,29.41,NNE,25,6.3,10.5,46,0.00,,,0.00,LWC V2.10 B1813,2013-02-16 00:48:00,
2013-02-15 18:53:00,50.0,30.0,29.41,North,6,5.4,15.9,46,0.00,,,0.00,LWC V2.10 B1813,2013-02-16 00:53:00,
2013-02-15 18:58:00,49.6,29.7,29.41,North,0,8.7,8.7,46,0.00,,,0.00,LWC V2.10 B1813,2013-02-16 00:58:00,
2013-02-15 19:03:00,49.1,29.7,29.41,North,1,10.5,11.0,47,0.00,,,0.00,LWC V2.10 B1813,2013-02-16 01:03:00,
2013-02-15 19:08:00,48.7,29.4,29.41,NE,34,10.1,10.1,47,0.00,,,0.00,LWC V2.10 B1813,2013-02-16 01:08:00,
2013-02-15 19:13:00,48.6,29.3,29.41,NE,40,3.1,10.1,47,0.00,,,0.00,LWC V2.10 B1813,2013-02-16 01:13:00,
2013-02-15 19:18:00,48.4,29.1,29.41,North,0,6.3,8.3,47,0.00,,,0.00,LWC V2.10 B1813,2013-02-16 01:18:00,
2013-02-15 19:23:00,48.2,28.9,29.41,NNE,19,3.6,4.9,47,0.00,,,0.00,LWC V2.10 B1813,2013-02-16 01:23:00,
2013-02-15 19:28:00,48.2,29.4,29.41,North,357,3.6,3.6,48,0.00,,,0.00,LWC V2.10 B1813,2013-02-16 01:28:00,
2013-02-15 19:33:00,48.2,29.4,29.41,NNW,332,4.0,6.3,48,0.00,,,0.00,LWC V2.10 B1813,2013-02-16 01:33:00,
2013-02-15 19:38:00,48.2,29.4,29.41,NNE,18,3.1,3.6,48,0.00,,,0.00,LWC V2.10 B1813,2013-02-16 01:38:00,
2013-02-15 19:43:00,48.2,29.4,29.41,NNE,17,2.2,3.6,48,0.00,,,0.00,LWC V2.10 B1813,2013-02-16 01:43:00,
2013-02-15 19:48:00,48.4,29.6,29.44,NW,320,3.6,3.6,48,0.00,,,0.00,LWC V2.10 B1813,2013-02-16 01:48:00,
2013-02-15 19:53:00,48.4,29.6,29.44,North,353,2.7,6.3,48,0.00,,,0.00,LWC V2.10 B1813,2013-02-16 01:53:00,
2013-02-15 19:58:00,48.4,29.6,29.44,NW,318,0.0,6.3,48,0.00,,,0.00,LWC V2.10 B1813,2013-02-16 01:58:00,
2013-02-15 20:03:00,48.2,29.4,29.44,NNW,328,3.6,8.1,48,0.00,,,0.00,LWC V2.10 B1813,2013-02-16 02:03:00,
2013-02-15 20:08:00,48.2,28.9,29.44,North,357,3.6,6.3,47,0.00,,,0.00,LWC V2.10 B1813,2013-02-16 02:08:00,
2013-02-15 20:13:00,48.0,28.8,29.44,NNW,327,5.4,5.8,47,0.00,,,0.00,LWC V2.10 B1813,2013-02-16 02:13:00,
2013-02-15 20:18:00,47.8,28.6,29.44,North,0,3.6,5.8,47,0.00,,,0.00,LWC V2.10 B1813,2013-02-16 02:18:00,
2013-02-15 20:23:00,47.7,27.9,29.44,NNW,339,5.8,8.1,46,0.00,,,0.00,LWC V2.10 B1813,2013-02-16 02:23:00,
2013-02-15 20:28:00,47.5,27.7,29.44,North,9,5.4,8.7,46,0.00,,,0.00,LWC V2.10 B1813,2013-02-16 02:28:00,
2013-02-15 20:33:00,47.3,27.0,29.44,North,353,3.6,4.0,45,0.00,,,0.00,LWC V2.10 B1813,2013-02-16 02:33:00,
2013-02-15 20:38:00,47.3,27.0,29.44,NNW,343,4.9,4.9,45,0.00,,,0.00,LWC V2.10 B1813,2013-02-16 02:38:00,
2013-02-15 20:43:00,47.1,26.9,29.44,WNW,303,3.6,5.8,45,0.00,,,0.00,LWC V2.10 B1813,2013-02-16 02:43:00,
2013-02-15 20:48:00,47.1,26.9,29.47,NW,306,2.2,5.8,45,0.00,,,0.00,LWC V2.10 B1813,2013-02-16 02:48:00,
2013-02-15 20:53:00,46.9,26.2,29.47,North,353,3.6,4.9,44,0.00,,,0.00,LWC V2.10 B1813,2013-02-16 02:53:00,
2013-02-15 20:58:00,46.9,26.2,29.47,WNW,297,4.5,4.5,44,0.00,,,0.00,LWC V2.10 B1813,2013-02-16 02:58:00,
2013-02-15 21:03:00,46.8,26.0,29.47,NNW,345,3.1,4.0,44,0.00,,,0.00,LWC V2.10 B1813,2013-02-16 03:03:00,
2013-02-15 21:08:00,46.6,25.3,29.47,NNE,18,2.2,2.7,43,0.00,,,0.00,LWC V2.10 B1813,2013-02-16 03:08:00,
2013-02-15 21:13:00,46.4,25.1,29.47,North,1,6.3,7.6,43,0.00,,,0.00,LWC V2.10 B1813,2013-02-16 03:13:00,
2013-02-15 21:18:00,46.2,25.0,29.47,NW,326,2.2,5.4,43,0.00,,,0.00,LWC V2.10 B1813,2013-02-16 03:18:00,
2013-02-15 21:23:00,46.0,24.8,29.47,NW,319,6.3,6.3,43,0.00,,,0.00,LWC V2.10 B1813,2013-02-16 03:23:00,
2013-02-15 21:28:00,45.9,24.1,29.47,NNW,337,2.2,5.8,42,0.00,,,0.00,LWC V2.10 B1813,2013-02-16 03:28:00,
2013-02-15 21:33:00,45.7,23.9,29.47,North,9,2.2,3.6,42,0.00,,,0.00,LWC V2.10 B1813,2013-02-16 03:33:00,
2013-02-15 21:38:00,45.5,23.8,29.47,NNW,334,2.2,4.9,42,0.00,,,0.00,LWC V2.10 B1813,2013-02-16 03:38:00,
2013-02-15 21:43:00,45.3,23.6,29.47,NW,310,0.0,0.0,42,0.00,,,0.00,LWC V2.10 B1813,2013-02-16 03:43:00,
2013-02-15 21:48:00,45.1,23.4,29.47,NW,319,0.0,0.0,42,0.00,,,0.00,LWC V2.10 B1813,2013-02-16 03:48:00,
2013-02-15 21:53:00,45.0,23.3,29.47,NNW,340,3.1,4.9,42,0.00,,,0.00,LWC V2.10 B1813,2013-02-16 03:53:00,
2013-02-15 21:58:00,45.0,23.3,29.47,NW,318,0.0,2.7,42,0.00,,,0.00,LWC V2.10 B1813,2013-02-16 03:58:00,
2013-02-15 22:03:00,44.8,23.1,29.50,NW,315,2.7,4.9,42,0.00,,,0.00,LWC V2.10 B1813,2013-02-16 04:03:00,
2013-02-15 22:08:00,44.8,23.1,29.50,NW,312,0.0,0.0,42,0.00,,,0.00,LWC V2.10 B1813,2013-02-16 04:08:00,
2013-02-15 22:13:00,44.6,22.9,29.50,NW,304,0.0,3.6,42,0.00,,,0.00,LWC V2.10 B1813,2013-02-16 04:13:00,
2013-02-15 22:18:00,44.4,22.8,29.50,NW,326,2.2,3.6,42,0.00,,,0.00,LWC V2.10 B1813,2013-02-16 04:18:00,
2013-02-15 22:23:00,44.4,22.8,29.50,NW,318,0.0,0.0,42,0.00,,,0.00,LWC V2.10 B1813,2013-02-16 04:23:00,
2013-02-15 22:28:00,44.2,22.6,29.50,NW,326,0.0,0.0,42,0.00,,,0.00,LWC V2.10 B1813,2013-02-16 04:28:00,
2013-02-15 22:33:00,44.1,22.5,29.50,WNW,301,0.0,0.0,42,0.00,,,0.00,LWC V2.10 B1813,2013-02-16 04:33:00,
2013-02-15 22:38:00,43.7,22.1,29.50,WNW,299,0.0,0.0,42,0.00,,,0.00,LWC V2.10 B1813,2013-02-16 04:38:00,
2013-02-15 22:43:00,43.7,22.7,29.50,WNW,298,2.2,3.6,43,0.00,,,0.00,LWC V2.10 B1813,2013-02-16 04:43:00,
2013-02-15 22:48:00,43.5,22.5,29.47,WNW,289,2.7,2.7,43,0.00,,,0.00,LWC V2.10 B1813,2013-02-16 04:48:00,
2013-02-15 22:53:00,43.3,22.9,29.47,WNW,290,2.2,3.1,44,0.00,,,0.00,LWC V2.10 B1813,2013-02-16 04:53:00,
2013-02-15 22:58:00,43.0,22.6,29.47,WNW,300,0.0,2.7,44,0.00,,,0.00,LWC V2.10 B1813,2013-02-16 04:58:00,
2013-02-15 23:00:00,43.0,22.6,29.50,WNW,300,0.0,0.0,44,0.00,,,0.00,LWC V2.10 B1813,2013-02-16 05:00:00,
2013-02-15 23:05:00,42.8,22.4,29.50,NW,325,0.0,2.7,44,0.00,,,0.00,LWC V2.10 B1813,2013-02-16 05:05:00,
2013-02-15 23:10:00,42.6,22.8,29.50,NNW,342,0.0,3.6,45,0.00,,,0.00,LWC V2.10 B1813,2013-02-16 05:10:00,
2013-02-15 23:15:00,42.4,22.6,29.50,NW,324,3.6,3.6,45,0.00,,,0.00,LWC V2.10 B1813,2013-02-16 05:15:00,
2013-02-15 23:20:00,42.3,22.5,29.50,NW,323,0.0,3.1,45,0.00,,,0.00,LWC V2.10 B1813,2013-02-16 05:20:00,
2013-02-15 23:25:00,42.1,21.8,29.50,NNW,329,2.2,3.1,44,0.00,,,0.00,LWC V2.10 B1813,2013-02-16 05:25:00,
2013-02-15 23:30:00,42.1,21.8,29.50,NW,315,0.0,2.2,44,0.00,,,0.00,LWC V2.10 B1813,2013-02-16 05:30:00,
2013-02-15 23:35:00,41.9,21.6,29.50,NNW,328,0.0,2.7,44,0.00,,,0.00,LWC V2.10 B1813,2013-02-16 05:35:00,
2013-02-15 23:40:00,41.9,21.1,29.50,NW,321,0.0,2.7,43,0.00,,,0.00,LWC V2.10 B1813,2013-02-16 05:40:00,
2013-02-15 23:45:00,41.7,20.9,29.50,NW,326,0.0,3.6,43,0.00,,,0.00,LWC V2.10 B1813,2013-02-16 05:45:00,
2013-02-15 23:50:00,41.5,20.7,29.50,WNW,301,0.0,2.2,43,0.00,,,0.00,LWC V2.10 B1813,2013-02-16 05:50:00,
2013-02-15 23:55:00,41.2,20.4,29.50,NNW,328,0.0,0.0,43,0.00,,,0.00,LWC V2.10 B1813,2013-02-16 05:55:00,